This is the latest recevied weather packets stored in our database for station/object KW6V-15. If no packets are shown the sender has not sent any weather packets the latest 10 day(s).
| Time | Temp. | Humidity | Pressure | Rain* | Wind** | Luminosity | Snow |
|---|---|---|---|---|---|---|---|
| 1777928455 | 13.89° C | 88% | 1016.1 hPa | 0 mm | - | - | - |
| 1777926640 | 13.33° C | 88% | 1016.1 hPa | 0 mm | - | - | - |
| 1777924832 | 13.33° C | 90% | 1016 hPa | 0 mm | - | - | - |
| 1777923086 | 12.78° C | 90% | 1015.9 hPa | 0 mm | - | - | - |
| 1777921236 | 12.78° C | 90% | 1016.1 hPa | 0 mm | - | - | - |
| 1777919423 | 12.22° C | 91% | 1016.6 hPa | 0 mm | - | - | - |
| 1777917641 | 11.67° C | 91% | 1016.1 hPa | 0 mm | - | - | - |
| 1777915832 | 11.67° C | 91% | 1016.2 hPa | 0 mm | - | - | - |
| 1777914030 | 11.67° C | 91% | 1015.6 hPa | 0 mm | - | - | - |
| 1777912228 | 11.11° C | 91% | 1015.8 hPa | 0 mm | - | - | - |
| 1777910444 | 11.11° C | 92% | 1015.9 hPa | 0 mm | - | - | - |
| 1777908631 | 11.11° C | 92% | 1015.4 hPa | 0 mm | - | - | - |
| 1777906820 | 11.11° C | 92% | 1015.6 hPa | 0 mm | - | - | - |
| 1777905036 | 10.56° C | 92% | 1015.1 hPa | 0 mm | - | - | - |
| 1777903223 | 10.56° C | 92% | 1014.8 hPa | 0 mm | - | - | - |
| 1777901438 | 10° C | 92% | 1014.9 hPa | 0 mm | - | - | - |
| 1777899634 | 10° C | 92% | 1014.8 hPa | 0 mm | - | - | - |
| 1777897873 | 10° C | 92% | 1014.9 hPa | 0 mm | - | - | - |
| 1777896032 | 9.44° C | 92% | 1015 hPa | 0 mm | - | - | - |
| 1777894230 | 9.44° C | 92% | 1014.8 hPa | 0 mm | - | - | - |
| 1777892522 | 9.44° C | 92% | 1014.9 hPa | 0 mm | - | - | - |
| 1777890632 | 8.89° C | 92% | 1014.7 hPa | 0 mm | - | - | - |
| 1777888876 | 8.33° C | 92% | 1014.5 hPa | 0 mm | - | - | - |
| 1777887048 | 8.89° C | 92% | 1014.5 hPa | 0 mm | - | - | - |
| 1777883477 | 8.33° C | 91% | 1014.6 hPa | 0 mm | - | - | - |
* Rain latest hour (hover to see other rain measurements)
** Current wind speed in m/s (hover to see current wind gust speed)